SR5NLK-1 Weather Reports


time (UTC)temp
F
wind
direction
speed
knots
gust
knots
rain 1hr
in
rain 24hr
in
rain mn
in
humidity
%
barometer
mb
20260906064534 58 247 6.1 19.1 0.00 0.00 0.00 77 1037.5
20260906064435 58 270 8.7 19.1 0.00 0.00 0.00 77 1034.3
20260906063935 58 270 14.8 26.1 0.00 0.00 0.00 77 1040.6
20260906063435 59 247 7.0 18.2 0.00 0.00 0.00 76 1037.5
20260906062935 59 270 10.4 22.6 0.00 0.00 0.00 75 1037.4
20260906062435 60 247 18.2 20.9 0.00 0.00 0.00 74 1034.3
20260906061935 60 292 11.3 18.2 0.00 0.00 0.00 74 1028.0
20260906061435 60 270 10.4 12.2 0.00 0.00 0.00 76 1021.7
20260906061234 59 225 7.0 13.0 0.00 0.00 0.00 76 1031.2
20260906060935 59 270 7.0 16.5 0.00 0.00 0.00 75 1046.9
20260906060435 59 247 9.6 19.1 0.00 0.00 0.00 75 1013.6
20260906055935 58 270 10.4 24.3 0.00 0.00 0.00 75 1034.3
20260906055435 58 270 20.0 22.6 0.00 0.00 0.00 76 1034.3
20260906054935 58 315 5.2 24.3 0.00 0.00 0.00 76 1037.5
20260906054435 58 270 13.0 16.5 0.00 0.00 0.00 77 1018.5
20260906053934 58 247 16.5 18.2 0.00 0.00 0.00 77 1032.3
20260906053435 58 270 17.4 17.4 0.00 0.00 0.00 77 1032.4
20260906052935 58 247 9.6 20.0 0.00 0.00 0.00 77 1009.0
20260906052435 58 270 8.7 17.4 0.00 0.00 0.00 77 1015.3
20260906051935 58 270 13.9 16.5 0.00 0.00 0.00 78 1046.9
20260906051435 58 270 15.6 18.2 0.00 0.00 0.00 78 1040.6
20260906050935 58 270 18.2 22.6 0.00 0.00 0.00 78 1031.2
20260906050634 57 225 9.6 18.2 0.00 0.00 0.00 78 1060.6
20260906050435 58 270 3.5 21.7 0.00 0.00 0.00 78 1028.0
20260906045935 58 225 14.8 16.5 0.00 0.00 0.00 78 1040.6
20260906045435 58 270 15.6 21.7 0.00 0.00 0.00 79 1031.1
20260906044935 58 247 8.7 15.6 0.00 0.00 0.00 79 1037.3
20260906044435 57 270 11.3 17.4 0.00 0.00 0.00 79 1037.3
20260906043935 57 270 13.0 15.6 0.00 0.00 0.00 79 1032.9
20260906043435 57 270 14.8 22.6 0.00 0.00 0.00 79 1012.2
20260906043334 57 247 11.3 22.6 0.00 0.00 0.00 79 1038.0
20260906042935 57 247 4.3 16.5 0.00 0.00 0.00 79 1021.7
20260906042435 57 247 5.2 14.8 0.00 0.00 0.00 79 1037.4
20260906041935 57 90 4.3 14.8 0.00 0.00 0.00 80 1045.5
20260906041435 57 270 8.7 14.8 0.00 0.00 0.00 80 1040.6
20260906040935 57 225 5.2 18.2 0.00 0.00 0.00 80 1075.5
20260906040435 57 270 12.2 16.5 0.00 0.00 0.00 80 1031.2
20260906040034 57 270 9.6 18.2 0.00 0.00 0.00 80 991.6
20260906035935 57 270 14.8 18.2 0.00 0.00 0.00 80 1037.5
20260906035435 57 270 13.9 16.5 0.00 0.00 0.00 80 1070.9
20260906034935 57 247 10.4 14.8 0.00 0.00 0.00 80 1050.3
20260906034435 57 270 12.2 23.5 0.00 0.00 0.00 80 1011.4
20260906033935 57 292 15.6 20.0 0.00 0.00 0.00 81 1064.4
20260906033435 57 292 5.2 17.4 0.00 0.00 0.00 81 1042.1
20260906032935 57 270 9.6 14.8 0.00 0.00 0.00 81 1002.4
20260906032734 57 270 7.0 14.8 0.00 0.00 0.00 81 1053.4
20260906032435 57 270 8.7 20.9 0.00 0.00 0.00 81 1057.2
20260906031935 57 270 13.0 21.7 0.00 0.00 0.00 81 1040.8
20260906031435 57 270 8.7 16.5 0.00 0.00 0.00 81 1045.7
20260906030935 57 247 5.2 15.6 0.00 0.00 0.00 81 1060.4
20260906030435 57 270 10.4 14.8 0.00 0.00 0.00 81 1061.3
20260906025935 57 270 8.7 14.8 0.00 0.02 0.00 81 1046.4
20260906025434 57 270 9.6 13.0 0.00 0.02 0.00 81 1055.6
20260906024935 57 270 7.0 15.6 0.00 0.02 0.00 81 1039.0
20260906024435 57 292 8.7 18.2 0.00 0.02 0.00 81 1075.2
20260906023935 57 202 5.2 18.2 0.00 0.02 0.00 81 1057.9
20260906023435 57 225 8.7 16.5 0.00 0.02 0.00 81 1068.4
20260906022935 57 247 5.2 16.5 0.00 0.02 0.00 81 1085.0
20260906022435 58 270 15.6 16.5 0.00 0.02 0.00 81 1047.0
20260906022134 58 270 16.5 16.5 0.00 0.02 0.00 81 1022.1
20260906021935 58 292 12.2 18.2 0.00 0.02 0.00 81 1074.9
20260906021435 58 225 7.0 17.4 0.00 0.02 0.00 81 1062.3
20260906020935 57 270 2.6 17.4 0.00 0.02 0.00 81 1053.8
20260906020435 57 270 13.0 16.5 0.00 0.02 0.00 81 1053.0
20260906015935 58 292 1.7 12.2 0.00 0.02 0.00 81 1043.7
20260906015435 58 270 12.2 16.5 0.00 0.02 0.00 81 1034.3
20260906014935 57 202 16.5 20.0 0.00 0.02 0.00 82 1061.9
20260906014834 58 292 10.4 17.4 0.00 0.02 0.00 82 1067.4
20260906014435 58 247 17.4 17.4 0.00 0.02 0.00 82 1063.9
20260906013935 58 270 11.3 12.2 0.00 0.02 0.00 82 1050.6
20260906013435 58 270 5.2 16.5 0.00 0.02 0.00 82 1063.1
20260906012935 58 270 16.5 16.5 0.00 0.02 0.00 82 1033.8
20260906012435 58 270 6.1 13.0 0.00 0.02 0.00 82 1043.8
20260906011935 58 292 9.6 14.8 0.00 0.02 0.00 82 1060.4
20260906011534 58 270 14.8 14.8 0.00 0.02 0.00 82 1053.7
20260906011435 58 247 9.6 12.2 0.00 0.02 0.00 82 1062.3
20260906010935 58 292 7.8 12.2 0.00 0.02 0.00 82 1031.9
20260906010435 58 247 10.4 10.4 0.00 0.02 0.00 82 1062.4
20260906005935 58 225 10.4 14.8 0.00 0.02 0.00 82 1028.8
20260906005436 58 225 8.7 13.0 0.00 0.02 0.00 82 1061.4
20260906004935 58 247 6.1 13.0 0.00 0.02 0.00 82 1061.1
20260906004435 58 247 10.4 13.0 0.00 0.02 0.00 82 1061.3
20260906004234 57 225 9.6 13.0 0.00 0.02 0.00 82 1052.6
20260906003935 57 270 9.6 13.0 0.00 0.02 0.00 83 1055.0
20260906003436 57 292 10.4 11.3 0.00 0.02 0.00 83 1043.8
20260906002935 57 225 7.0 13.9 0.00 0.02 0.00 83 1056.4
20260906002436 57 270 10.4 12.2 0.00 0.02 0.00 83 1062.2
20260906001935 57 270 2.6 9.6 0.00 0.02 0.00 83 1066.4
20260906001435 57 270 3.5 8.7 0.00 0.02 0.00 83 1074.0
20260906000934 57 270 3.5 12.2 0.00 0.02 0.00 82 1031.1
20260906000435 57 270 5.2 10.4 0.00 0.02 0.00 82 1046.9
20260905235935 57 292 8.7 14.8 0.00 0.02 0.00 82 1077.6
20260905235435 57 270 9.6 12.2 0.00 0.02 0.00 82 1032.2
20260905234936 57 202 4.3 13.9 0.00 0.02 0.00 82 1053.2
20260905234436 57 270 5.2 15.6 0.00 0.02 0.00 82 1057.5
20260905233936 57 202 5.2 13.9 0.00 0.02 0.00 82 1014.2
20260905233635 57 202 7.8 13.9 0.00 0.02 0.00 82 1034.0
20260905233435 57 247 5.2 11.3 0.00 0.02 0.00 82 1089.4
20260905232936 57 270 7.8 15.6 0.00 0.02 0.00 82 1031.2
20260905232436 57 270 6.1 13.9 0.00 0.02 0.00 82 1069.0
20260905231936 57 270 9.6 11.3 0.00 0.02 0.00 82 1062.6
20260905231436 57 247 7.0 12.2 0.00 0.02 0.00 82 1046.9
20260905230936 57 292 4.3 13.0 0.00 0.02 0.00 83 1061.1
20260905230436 57 270 7.0 14.8 0.00 0.02 0.00 83 1068.2
20260905230335 57 270 9.6 14.8 0.00 0.02 0.00 83 1059.2
20260905225936 57 247 4.3 12.2 0.00 0.02 0.00 83 1048.5
20260905225436 57 270 4.3 13.9 0.00 0.02 0.00 83 1067.4
20260905224936 57 225 3.5 11.3 0.00 0.02 0.00 83 1078.4
20260905224436 57 247 7.0 11.3 0.00 0.02 0.00 83 1063.8
20260905223936 57 292 3.5 15.6 0.00 0.02 0.00 83 1023.0
20260905223436 57 202 7.8 13.9 0.00 0.02 0.00 83 1053.3
20260905223035 57 247 3.5 15.6 0.00 0.02 0.00 83 1039.6
20260905222936 57 270 1.7 15.6 0.00 0.02 0.00 83 1060.3
20260905222436 57 270 10.4 17.4 0.00 0.02 0.00 83 1047.8
20260905221936 57 270 6.1 14.8 0.00 0.02 0.00 83 1071.8
20260905221436 57 270 5.2 11.3 0.00 0.02 0.00 83 1049.7
20260905220936 57 270 9.6 12.2 0.00 0.02 0.00 83 1038.2
20260905220436 57 225 8.7 16.5 0.00 0.02 0.00 83 1062.1
20260905215936 57 225 9.6 19.1 0.00 0.02 0.00 83 1061.8
20260905215735 57 270 19.1 20.0 0.00 0.02 0.00 83 1042.1
20260905215436 57 247 9.6 20.0 0.00 0.02 0.00 83 1074.9
20260905214936 57 292 11.3 13.0 0.00 0.02 0.00 82 1052.9
20260905214436 57 270 8.7 13.9 0.00 0.02 0.00 82 1052.3
20260905213936 57 202 7.0 19.1 0.00 0.02 0.00 82 1059.5
20260905213436 57 202 3.5 16.5 0.00 0.02 0.00 82 1039.4
20260905212936 57 270 6.1 15.6 0.00 0.02 0.00 82 1068.6
20260905212435 57 292 3.5 9.6 0.00 0.02 0.00 82 1059.5
20260905211936 57 292 4.3 9.6 0.00 0.02 0.00 82 1028.7
20260905211436 57 292 7.0 13.0 0.00 0.02 0.00 82 1036.6
20260905210936 57 225 7.8 13.0 0.00 0.02 0.00 82 1058.8
20260905210436 57 225 8.7 11.3 0.00 0.02 0.00 82 1025.6
20260905205936 57 202 10.4 12.2 0.00 0.02 0.00 82 1061.1
20260905205436 57 225 12.2 12.2 0.00 0.02 0.00 81 1058.6
20260905205135 57 270 7.0 13.0 0.00 0.02 0.00 81 1059.9
20260905204936 57 202 2.6 13.0 0.00 0.02 0.00 81 1022.7
20260905204436 57 292 2.6 9.6 0.00 0.02 0.00 81 1030.8
20260905203936 57 270 2.6 10.4 0.00 0.02 0.00 81 997.2
20260905203436 58 270 2.6 12.2 0.00 0.02 0.00 81 1056.4
20260905202936 58 270 7.0 14.8 0.00 0.02 0.00 81 1020.9
20260905202436 58 270 10.4 13.0 0.00 0.02 0.00 81 1092.6
20260905202117 58 225 3.5 13.9 0.00 0.02 0.00 81 1048.5
20260905201936 58 225 3.5 13.9 0.00 0.02 0.00 81 1048.5
20260905201835 58 270 13.9 13.9 0.00 0.02 0.00 81 1057.9
20260905201436 58 247 7.8 16.5 0.00 0.02 0.00 81 1064.2
20260905200936 58 270 7.0 12.2 0.00 0.02 0.00 81 1039.1
20260905200436 58 292 7.8 12.2 0.00 0.02 0.00 81 1061.1
20260905195936 58 270 5.2 11.3 0.00 0.04 0.00 80 1052.7
20260905195436 58 292 5.2 10.4 0.00 0.04 0.00 80 1072.1
20260905194936 59 270 8.7 13.9 0.00 0.04 0.00 80 1078.1
20260905194535 59 247 7.0 12.2 0.00 0.04 0.00 79 983.8
20260905194436 59 315 1.7 12.2 0.00 0.04 0.00 79 1011.4
20260905193936 59 270 12.2 12.2 0.00 0.04 0.00 79 1067.1
20260905193436 59 225 6.1 12.2 0.00 0.04 0.00 77 1054.5
20260905192936 59 225 7.0 11.3 0.00 0.04 0.00 77 1064.2
20260905192436 59 247 2.6 17.4 0.00 0.04 0.00 76 1030.4
20260905191936 60 247 9.6 18.2 0.00 0.04 0.00 73 1040.4
20260905191436 61 270 13.0 13.9 0.00 0.04 0.00 70 1037.4
20260905191235 61 247 2.6 13.9 0.00 0.04 0.00 70 1062.4
20260905190936 61 270 7.8 13.9 0.00 0.04 0.00 69 1054.8
20260905190436 61 225 7.8 13.0 0.00 0.04 0.00 68 1064.3
20260905185936 61 202 8.7 8.7 0.00 0.08 0.00 68 1070.6
20260905185436 61 202 4.3 7.0 0.00 0.08 0.00 67 1081.6
20260905184936 61 202 1.7 7.8 0.00 0.08 0.00 67 1059.5
20260905184436 61 270 3.5 9.6 0.00 0.08 0.00 67 1053.6
20260905183935 62 247 4.3 8.7 0.00 0.08 0.00 67 1058.2
20260905183436 62 202 4.3 8.7 0.00 0.08 0.00 66 1063.9
20260905182936 62 270 8.7 12.2 0.00 0.08 0.00 66 1007.5
20260905182436 62 225 7.0 9.6 0.00 0.08 0.00 66 1067.4
20260905181936 62 247 6.1 8.7 0.00 0.08 0.00 66 1042.9
20260905181436 62 270 4.3 7.8 0.00 0.08 0.00 66 1051.7
20260905180936 62 292 3.5 12.2 0.00 0.08 0.00 66 1075.9
20260905180635 62 292 7.0 12.2 0.00 0.08 0.00 65 1040.6
20260905180436 62 292 8.7 12.2 0.00 0.08 0.00 65 1054.8
20260905175936 62 270 5.2 16.5 0.00 0.08 0.00 65 1003.6
20260905175436 62 225 7.0 18.2 0.00 0.08 0.00 65 1059.5
20260905174936 63 292 6.1 11.3 0.00 0.08 0.00 65 1065.8
20260905174436 63 270 5.2 16.5 0.00 0.08 0.00 64 1065.8
20260905173936 63 292 12.2 13.9 0.00 0.08 0.00 64 1053.2
20260905173436 63 292 6.1 13.0 0.00 0.08 0.00 64 1062.3
20260905173335 63 270 7.8 13.0 0.00 0.08 0.00 64 1059.5
20260905172936 63 225 3.5 9.6 0.00 0.08 0.00 64 982.3
20260905172436 63 270 5.2 10.4 0.00 0.08 0.00 64 1024.0
20260905171936 63 247 6.1 16.5 0.00 0.08 0.00 63 1030.3
20260905171436 64 270 6.1 11.3 0.00 0.08 0.00 63 1064.2
20260905170936 64 270 7.0 10.4 0.00 0.08 0.00 63 1070.8
20260905170436 64 270 3.5 14.8 0.00 0.08 0.00 62 1051.6
20260905170035 64 270 2.6 14.8 0.00 0.08 0.00 62 1037.7
20260905165936 64 202 6.1 12.2 0.00 0.08 0.00 62 1078.4
20260905165436 64 270 11.3 18.2 0.00 0.08 0.00 61 1046.9
20260905164936 65 247 11.3 13.9 0.00 0.08 0.00 60 1062.0
20260905164436 65 247 8.7 17.4 0.00 0.08 0.00 60 1053.2
20260905163936 65 247 9.6 16.5 0.00 0.08 0.00 60 1047.6
20260905163436 65 247 5.2 16.5 0.00 0.08 0.00 60 1075.2
20260905162936 64 247 12.2 15.6 0.00 0.08 0.00 61 1062.7
20260905162735 64 270 12.2 15.6 0.00 0.08 0.00 61 1070.6
20260905162436 64 270 7.8 10.4 0.00 0.08 0.00 60 1061.1
20260905161937 64 247 5.2 16.5 0.00 0.08 0.00 60 1015.2
20260905161436 64 270 10.4 17.4 0.00 0.08 0.00 59 1038.2
20260905160936 64 247 6.1 12.2 0.00 0.08 0.00 59 1075.2
20260905160436 65 247 6.1 15.6 0.00 0.08 0.00 58 1064.2
20260905155936 65 225 7.0 17.4 0.00 0.08 0.00 57 1035.0
20260905155435 66 247 10.4 15.6 0.00 0.08 0.00 57 1048.5
20260905154936 66 180 13.0 15.6 0.00 0.08 0.00 56 1054.8
20260905154436 66 225 14.8 20.9 0.00 0.08 0.00 55 1067.4
20260905153937 67 247 11.3 18.2 0.00 0.08 0.00 54 1069.0
20260905153436 67 292 5.2 18.2 0.00 0.08 0.00 55 1074.9
20260905152936 67 270 8.7 21.7 0.00 0.08 0.00 55 1078.4
20260905152436 67 270 13.9 17.4 0.00 0.08 0.00 56 1054.8
20260905152135 67 202 15.6 16.5 0.00 0.08 0.00 57 1076.8
20260905151936 67 202 10.4 16.5 0.00 0.08 0.00 57 1043.4
20260905151436 66 337 6.1 13.0 0.00 0.08 0.00 59 1086.3
20260905150937 66 225 7.0 20.9 0.00 0.08 0.00 59 1070.6
20260905150436 66 270 5.2 18.2 0.00 0.08 0.00 60 996.4
20260905145436 67 270 10.4 24.3 0.00 0.08 0.00 60 1075.4
20260905144936 68 270 11.3 23.5 0.00 0.08 0.00 58 1046.9
20260905144835 68 292 6.1 23.5 0.00 0.08 0.00 58 1076.9
20260905144436 69 292 20.0 20.0 0.00 0.08 0.00 54 1053.2
20260905143937 69 202 11.3 18.2 0.00 0.08 0.00 50 1053.2
20260905143436 70 270 13.0 19.1 0.00 0.08 0.00 50 1033.5
20260905142936 70 270 16.5 18.2 0.00 0.08 0.00 50 1065.8
20260905142436 70 202 4.3 20.0 0.00 0.08 0.00 50 1058.0
20260905141536 71 270 18.2 20.0 0.00 0.08 0.00 48 1079.9
20260905140936 71 315 7.0 16.5 0.00 0.08 0.00 47 1062.6
20260905140436 71 247 8.7 16.5 0.00 0.08 0.00 48 1062.6
20260905135936 72 292 6.1 16.5 0.00 0.08 0.00 47 1064.2
20260905135436 72 225 7.8 20.9 0.00 0.08 0.00 46 1080.0
20260905134937 73 270 10.4 20.9 0.00 0.08 0.00 47 1056.4
20260905134437 73 247 19.1 25.2 0.00 0.08 0.00 47 1058.0
20260905134236 72 202 15.6 17.4 0.00 0.08 0.00 48 1059.5
20260905133936 72 270 14.8 22.6 0.00 0.08 0.00 48 1076.8
20260905133437 71 45 5.2 14.8 0.00 0.08 0.00 49 1018.5
20260905132937 71 225 3.5 15.6 0.00 0.08 0.00 49 1073.7
20260905132437 71 270 9.6 16.5 0.00 0.08 0.00 48 1068.9
20260905131937 72 270 16.5 20.9 0.00 0.08 0.00 47 1080.4
20260905131437 72 247 15.6 17.4 0.00 0.08 0.00 47 1011.4
20260905130936 72 315 11.3 18.2 0.00 0.08 0.00 46 1045.7
20260905130437 72 247 10.4 18.2 0.00 0.08 0.00 46 1030.3
20260905125937 73 270 16.5 18.2 0.00 0.08 0.00 46 1076.5
20260905125437 73 270 14.8 20.0 0.00 0.08 0.00 45 1046.9
20260905124937 73 270 10.4 20.0 0.00 0.08 0.00 45 1045.7
20260905124523 72 270 14.8 20.0 0.00 0.08 0.00 46 1070.5
20260905124518 73 270 20.0 26.1 0.00 0.08 0.00 45 1067.1
20260905124437 73 270 20.0 26.1 0.00 0.08 0.00 45 1067.1
20260905123937 73 270 16.5 23.5 0.00 0.08 0.00 46 1081.5
20260905123636 72 270 8.7 20.0 0.00 0.08 0.00 46 1067.4
20260905123437 72 270 14.8 20.0 0.00 0.08 0.00 46 1070.5
20260905122937 71 202 14.8 26.1 0.00 0.08 0.00 46 1059.2
20260905122437 71 202 14.8 20.0 0.00 0.08 0.00 46 1089.4
20260905121937 71 90 6.1 24.3 0.00 0.08 0.00 47 1076.5
20260905121437 71 270 20.0 20.0 0.00 0.08 0.00 47 1085.2
20260905120937 71 270 18.2 25.2 0.00 0.08 0.00 46 1061.1
20260905120437 71 225 18.2 18.2 0.00 0.08 0.00 46 1070.5
20260905120336 71 247 13.9 21.7 0.00 0.08 0.00 45 1036.7
20260905115937 72 270 21.7 23.5 0.00 0.08 0.00 45 985.4
20260905114937 73 247 11.3 19.1 0.00 0.08 0.00 46 1073.7
20260905114437 73 180 7.8 20.0 0.00 0.08 0.00 46 1022.5
20260905113937 72 247 13.9 31.3 0.00 0.08 0.00 46 1061.8
20260905113437 73 292 10.4 19.1 0.00 0.08 0.00 46 1067.4
20260905113036 72 180 5.2 20.9 0.00 0.08 0.00 47 1042.9
20260905112937 72 225 15.6 20.9 0.00 0.08 0.00 47 985.4
20260905111938 71 292 7.8 21.7 0.00 0.08 0.00 46 1035.8
20260905111437 72 247 15.6 19.1 0.00 0.08 0.00 46 1056.4
20260905110937 72 270 10.4 31.3 0.00 0.08 0.00 48 1051.6
20260905110437 72 270 13.9 21.7 0.00 0.08 0.00 48 1061.1
20260905105937 72 270 9.6 18.2 0.00 0.08 0.00 47 1030.3
20260905105736 72 247 7.0 21.7 0.00 0.08 0.00 48 1005.1
20260905105437 71 315 7.0 26.9 0.00 0.08 0.00 48 1034.7
20260905104937 70 180 13.0 26.9 0.00 0.08 0.00 51 1076.6
20260905104437 69 292 7.0 18.2 0.00 0.08 0.00 53 1054.8
20260905103937 68 90 9.6 15.6 0.00 0.08 0.00 54 1037.1
20260905103437 68 270 14.8 24.3 0.00 0.08 0.00 54 1059.5
20260905102937 69 270 17.4 23.5 0.00 0.08 0.00 52 1022.5
20260905102436 70 270 23.5 23.5 0.00 0.08 0.00 50 1061.1
20260905101437 73 270 22.6 26.9 0.00 0.08 0.00 47 1036.6
20260905100938 73 270 14.8 20.9 0.00 0.08 0.00 48 1059.5
20260905100437 73 247 17.4 20.0 0.00 0.08 0.00 50 1036.6
20260905095937 72 337 8.7 20.0 0.00 0.08 0.00 48 1051.6
20260905095437 73 270 16.5 27.8 0.00 0.08 0.00 50 1077.1
20260905095136 72 270 4.3 21.7 0.00 0.08 0.00 50 1053.2
20260905094937 72 270 8.7 25.2 0.00 0.08 0.00 50 1048.5
20260905094437 71 247 5.2 18.2 0.00 0.08 0.00 52 1068.9
20260905093937 71 270 7.8 21.7 0.00 0.08 0.00 51 1056.4
20260905093437 71 270 9.6 28.7 0.00 0.08 0.00 51 1075.2
20260905092937 71 270 20.9 38.2 0.00 0.08 0.00 51 1068.6
20260905092437 71 247 8.7 27.8 0.00 0.08 0.00 51 1080.0
20260905091937 72 270 7.0 21.7 0.00 0.08 0.00 52 1056.4
20260905091836 71 270 14.8 23.5 0.00 0.08 0.00 53 1043.8
20260905091437 71 225 7.8 23.5 0.00 0.08 0.00 54 1053.2
20260905090937 70 337 6.1 18.2 0.00 0.08 0.00 54 1056.4
20260905090437 69 292 5.2 18.2 0.00 0.08 0.00 56 1039.1
20260905085937 69 225 7.0 20.9 0.00 0.08 0.00 56 1081.5
20260905085437 69 270 12.2 25.2 0.00 0.08 0.00 55 1065.9
20260905084937 69 292 11.3 22.6 0.00 0.08 0.00 55 1073.7
20260905084536 70 225 10.4 29.5 0.00 0.08 0.00 54 1050.1
20260905084437 71 292 22.6 29.5 0.00 0.08 0.00 53 1046.9
20260905083937 72 202 11.3 18.2 0.00 0.08 0.00 55 1073.7
20260905083437 72 247 10.4 18.2 0.00 0.08 0.00 55 1086.3
20260905082937 71 247 14.8 20.9 0.00 0.08 0.00 56 1065.8
20260905082437 71 270 12.2 23.5 0.00 0.08 0.00 56 1078.4
20260905081937 71 202 13.9 23.5 0.00 0.08 0.00 55 1069.0
20260905081236 72 247 12.2 18.2 0.00 0.08 0.00 56 1046.9
20260905080937 72 157 14.8 20.0 0.00 0.08 0.00 56 1046.9
20260905080437 72 270 8.7 17.4 0.00 0.08 0.00 56 1048.0
20260905075937 71 247 14.8 19.1 0.00 0.08 0.00 59 1067.4
20260905075437 69 270 14.8 16.5 0.00 0.08 0.00 63 1070.5
20260905074937 68 270 14.8 20.0 0.00 0.08 0.00 64 1072.1
20260905074437 67 292 11.3 17.4 0.00 0.08 0.00 63 1046.6
20260905073936 68 202 7.8 20.9 0.00 0.08 0.00 63 1053.2
20260905073437 68 270 14.8 25.2 0.00 0.08 0.00 63 1044.2
20260905072937 67 247 5.2 20.0 0.00 0.08 0.00 64 1039.0
20260905072437 67 247 6.1 16.5 0.00 0.08 0.00 66 1085.0
20260905071937 66 270 20.9 20.9 0.00 0.08 0.00 66 1063.8
20260905071437 66 270 12.2 28.7 0.00 0.08 0.00 67 1040.6
20260905070937 66 270 28.7 28.7 0.00 0.08 0.00 66 1046.9
20260905070636 66 270 13.9 19.1 0.00 0.08 0.00 65 1050.1
20260905070437 66 270 10.4 16.5 0.00 0.08 0.00 65 1007.4
20260905065937 67 315 14.8 19.1 0.00 0.08 0.00 64 1029.3
20260905065438 67 247 8.7 18.2 0.00 0.08 0.00 63 1053.2
20260905064937 67 270 10.4 14.8 0.00 0.08 0.00 64 1066.1